Sault Ste Marie, MI

5:27 PM EDT on April 20, 2018 (GMT -0400)
Sault Ste Marie Municipal / Sanderson Field

Weather History for KANJ - January, 2012

Change the Weather History Date:

Thursday, January 12, 2012

  Actual Average Record
Temperature  
Mean Temperature 27 °F 15 °F  
Max Temperature 37 °F 23 °F 47 °F (2013)
Min Temperature 16 °F 8 °F -30 °F (1912)
Degree Days  
Heating Degree Days 38 50  
Month to date heating degree days 473 588  
Since 1 July heating degree days 3165 3847  
Moisture  
Dew Point 25 °F    
Average Humidity 84    
Maximum Humidity 92    
Minimum Humidity 75    
Precipitation  
Precipitation 0.23 in 0.07 in 1.05 in (1896)
Month to date precipitation 1.16 0.92  
Year to date precipitation 1.16 0.92  
Snow  
Snow 2.10 in 1.00 in 12.00 in (1896)
Month to date snowfall 12.9 12.6  
Since 1 July snowfall 29.9 62.8  
Snow Depth 6.00 in    
Sea Level Pressure  
Sea Level Pressure 29.43 in    
Wind  
Wind Speed 6 mph (NNE)    
Max Wind Speed 16 mph    
Max Gust Speed 24 mph    
Visibility 5 miles    
Events Snow    
T = Trace of Precipitation, MM = Missing Value Source: NWS Daily Summary

Daily Weather History Graph

Daily Weather History Graph

Search for Another Location

Airport or City:

Astronomy

Jan. 12, 2012 Rise Set
Actual Time 8:18 AM EST 5:12 PM EST
Civil Twilight 7:44 AM EST 5:46 PM EST
Nautical Twilight 7:07 AM EST 6:24 PM EST
Astronomical Twilight 6:30 AM EST 7:00 PM EST
Moon 9:34 PM EST (1/12) 9:46 AM EST (1/12)
Length of Visible Light 10h 02m
Length of Day
8h 53m
Waning Gibbous, 87% of the Moon is Illuminated
Jan 12
Waning Gibbous
Jan 16
Last Quarter
Jan 23
New
Jan 30
First Quarter
Feb 7
Full

Hourly Weather History & Observations

Time (EST) Temp. Windchill Dew Point Humidity Pressure Visibility Wind Dir Wind Speed Gust Speed Precip Events Conditions
12:55 AM 36.0 °F 29.6 °F 32.0 °F 86% 29.58 in 5.0 mi ESE 8.1 mph - N/A   Overcast
1:55 AM 36.0 °F 31.1 °F 33.1 °F 89% 29.57 in 5.0 mi Variable 5.8 mph - N/A   Overcast
2:55 AM 35.1 °F 29.3 °F 32.0 °F 89% - 6.0 mi East 6.9 mph - N/A   Overcast
3:55 AM 35.1 °F 28.6 °F 32.0 °F 89% - 8.0 mi East 8.1 mph - N/A   Overcast
4:55 AM 35.1 °F 31.0 °F 30.9 °F 85% - 9.0 mi ESE 4.6 mph - N/A   Overcast
5:55 AM 34.0 °F 28.0 °F 30.0 °F 85% - 10.0 mi East 6.9 mph - N/A   Overcast
6:55 AM 34.0 °F 28.8 °F 28.9 °F 82% 29.53 in 10.0 mi East 5.8 mph - N/A   Overcast
7:55 AM 33.1 °F 28.7 °F 28.9 °F 85% 29.53 in 10.0 mi East 4.6 mph - N/A   Overcast
8:55 AM 33.1 °F - 28.0 °F 82% 29.53 in 10.0 mi Calm Calm - N/A   Overcast
9:30 AM 33.8 °F - 28.4 °F 81% 29.51 in 10.0 mi Calm Calm - N/A   Overcast
9:55 AM 33.1 °F - 28.9 °F 85% 29.53 in 10.0 mi Calm Calm - N/A   Overcast
10:04 AM 33.8 °F - 28.4 °F 81% 29.51 in 10.0 mi Calm Calm - N/A   Overcast
10:39 AM 35.6 °F - 28.4 °F 75% 29.50 in 10.0 mi Calm Calm - N/A   Overcast
10:55 AM 34.0 °F - 28.9 °F 82% 29.51 in 10.0 mi Calm Calm - N/A   Overcast
11:19 AM 33.8 °F - 28.4 °F 81% 29.49 in 10.0 mi Calm Calm - N/A   Overcast
11:55 AM 35.1 °F 32.2 °F 28.9 °F 78% 29.48 in 9.0 mi NW 3.5 mph - N/A   Overcast
12:19 PM 35.6 °F 32.8 °F 28.4 °F 75% 29.45 in 8.0 mi WNW 3.5 mph - N/A   Overcast
12:55 PM 36.0 °F 33.3 °F 30.0 °F 79% 29.44 in 7.0 mi NW 3.5 mph - N/A   Overcast
1:55 PM 37.0 °F 31.6 °F 30.0 °F 76% 29.40 in 8.0 mi North 6.9 mph - N/A   Overcast
2:55 PM 36.0 °F 31.1 °F 30.0 °F 79% 29.39 in 6.0 mi North 5.8 mph - N/A   Haze
3:46 PM 37.4 °F 33.8 °F 30.2 °F 75% 29.37 in 7.0 mi North 4.6 mph - N/A   Overcast
3:55 PM 37.0 °F 33.3 °F 30.0 °F 76% 29.39 in 8.0 mi North 4.6 mph - N/A   Overcast
4:55 PM 36.0 °F 31.1 °F 28.9 °F 76% 29.39 in 10.0 mi NNE 5.8 mph - N/A   Overcast
5:55 PM 35.1 °F 27.9 °F 28.0 °F 76% 29.39 in 8.0 mi NNE 9.2 mph - 0.00 in   Overcast
6:23 PM 33.8 °F 26.4 °F 28.4 °F 81% 29.37 in 2.0 mi NNE 9.2 mph - 0.00 in Snow Light Snow
6:30 PM 32.0 °F 23.6 °F 28.4 °F 87% 29.37 in 1.8 mi NNE 10.4 mph 20.7 mph 0.00 in Snow Light Snow
6:41 PM 32.0 °F 24.2 °F 28.4 °F 87% 29.37 in 2.0 mi NE 9.2 mph - 0.00 in Snow Light Snow
6:55 PM 30.9 °F 22.2 °F 27.0 °F 85% 29.39 in 1.8 mi NNE 10.4 mph - 0.01 in Snow Light Snow
7:11 PM 30.2 °F 21.9 °F 26.6 °F 86% 29.37 in 1.5 mi NNE 9.2 mph - 0.00 in Snow Light Snow
7:21 PM 30.2 °F 21.9 °F 26.6 °F 86% 29.37 in 1.8 mi NE 9.2 mph - 0.00 in Snow Light Snow
7:26 PM 28.4 °F 19.7 °F 24.8 °F 86% 29.37 in 1.8 mi NE 9.2 mph 21.9 mph 0.00 in Snow Light Snow
7:33 PM 28.4 °F 18.0 °F 24.8 °F 86% 29.38 in 2.0 mi NE 12.7 mph 18.4 mph 0.01 in Snow Light Snow
7:55 PM 27.0 °F 16.7 °F 21.9 °F 81% 29.40 in 1.8 mi ENE 11.5 mph 24.2 mph 0.01 in Snow Light Snow
8:43 PM 24.8 °F 12.9 °F 21.2 °F 86% 29.38 in 1.0 mi NNE 13.8 mph 19.6 mph 0.01 in Snow Light Snow
8:53 PM 24.8 °F 14.6 °F 19.4 °F 80% 29.39 in 1.0 mi NNE 10.4 mph 20.7 mph 0.02 in Snow Light Snow
8:55 PM 24.1 °F 13.1 °F 19.9 °F 84% 29.41 in 1.0 mi NNE 11.5 mph 20.7 mph 0.03 in Snow Light Snow
9:03 PM 24.8 °F 14.0 °F 19.4 °F 80% 29.39 in 0.8 mi NE 11.5 mph - 0.00 in Snow Light Snow
9:19 PM 21.2 °F 9.5 °F 17.6 °F 86% 29.39 in 1.0 mi NNE 11.5 mph - 0.01 in Snow Light Snow
9:33 PM 21.2 °F 11.7 °F 17.6 °F 86% 29.40 in 0.8 mi NNE 8.1 mph 17.3 mph 0.02 in Snow Light Snow
9:55 PM 21.0 °F 9.9 °F 17.1 °F 85% 29.42 in 0.8 mi North 10.4 mph - 0.04 in Snow Light Snow
10:08 PM 19.4 °F 7.9 °F 15.8 °F 86% 29.40 in 0.8 mi NNE 10.4 mph - 0.01 in Snow Light Snow
10:28 PM 19.4 °F 6.6 °F 15.8 °F 86% 29.40 in 0.8 mi NNE 12.7 mph - 0.03 in Snow Light Snow
10:35 PM 19.4 °F 9.5 °F 14.0 °F 80% 29.40 in 1.0 mi NE 8.1 mph - 0.04 in Snow Light Snow
10:52 PM 17.6 °F 9.3 °F 14.0 °F 86% 29.40 in 1.0 mi NNE 5.8 mph - 0.07 in Snow Light Snow
10:55 PM 19.0 °F 7.5 °F 14.0 °F 81% 29.42 in 1.0 mi North 10.4 mph - 0.07 in Snow Light Snow
10:58 PM 17.6 °F 5.0 °F 14.0 °F 86% 29.40 in 1.0 mi North 11.5 mph - 0.00 in Snow Light Snow
11:17 PM 17.6 °F 5.0 °F 12.2 °F 79% 29.40 in 0.8 mi NNE 11.5 mph 17.3 mph 0.01 in Snow Light Snow
11:40 PM 17.6 °F 7.3 °F 12.2 °F 79% 29.41 in 0.5 mi NNE 8.1 mph - 0.05 in Snow Snow
11:55 PM 16.0 °F 5.3 °F 12.0 °F 84% 29.44 in 0.8 mi North 8.1 mph - 0.06 in Snow Light Snow